Location: *
(50.3440°N, 18.6237°E)
Time: 16:07:25
(UTC+00:00)

Cosmos 1656 Rocket - Pass Details

Date: 30 November 2020
Orbit: 796 x 846 km, 71.1° (Epoch: 17 January)

Event Time Altitude Azimuth Distance (km) Brightness Sun altitude
Rises 17:24:01 0° 329° (NNW) 3,410 7.2 -24.4°
Reaches altitude 10° 17:26:30 10° 327° (NNW) 2,466 6.4 -24.8°
Maximum altitude 17:32:07 70° 246° (WSW) 889 3.9 -25.7°
Enters shadow 17:35:39 23° 167° (SSE) 1,695 5.1 -26.2°
